W5WDV Weather Reports


time (UTC)temp
C
wind
direction
speed
KPH
gust
KPH
rain 1hr
cm
rain 24hr
cm
rain mn
cm
humidity
%
barometer
mb
20260506155958 25 157 1.6 4.8 0.00 0.00 0.00 17 1009.8
20260506155459 25 171 0.0 0.0 0.00 0.00 0.00 17 1009.7
20260506154502 25 173 0.0 0.0 0.00 0.00 0.00 17 1009.4
20260506153959 25 173 0.0 0.0 0.00 0.00 0.00 17 1009.3
20260506153001 25 173 0.0 0.0 0.00 0.00 0.00 17 1009.2
20260506152459 25 173 0.0 3.2 0.00 0.00 0.00 17 1009.1
20260506151959 24 173 0.0 3.2 0.00 0.00 0.00 17 1009.1
20260506151459 24 173 0.0 0.0 0.00 0.00 0.00 17 1009.0
20260506151002 24 173 0.0 0.0 0.00 0.00 0.00 17 1009.0
20260506145959 24 173 0.0 0.0 0.00 0.00 0.00 17 1009.0
20260506144959 24 173 0.0 3.2 0.00 0.00 0.00 17 1008.9
20260506144501 24 173 0.0 0.0 0.00 0.00 0.00 17 1008.9
20260506143959 24 174 0.0 1.6 0.00 0.00 0.00 17 1008.9
20260506143459 24 174 0.0 1.6 0.00 0.00 0.00 17 1008.6
20260506142959 24 174 0.0 4.8 0.00 0.00 0.00 17 1008.6
20260506141459 24 177 1.6 4.8 0.00 0.00 0.00 17 1008.3
20260506141002 24 180 0.0 4.8 0.00 0.00 0.00 17 1008.3
20260506140459 24 182 0.0 8.0 0.00 0.00 0.00 17 1008.2
20260506135959 23 188 3.2 8.0 0.00 0.00 0.00 17 1007.9
20260506135501 23 179 1.6 8.0 0.00 0.00 0.00 17 1007.9
20260506134959 23 182 0.0 4.8 0.00 0.00 0.00 17 1007.9
20260506134459 23 168 1.6 14.5 0.00 0.00 0.00 17 1007.9
20260506133959 23 200 3.2 14.5 0.00 0.00 0.00 17 1007.8
20260506133459 23 164 4.8 14.5 0.00 0.00 0.00 17 1007.7
20260506132959 23 155 1.6 9.7 0.00 0.00 0.00 17 1007.7
20260506132459 23 175 0.0 9.7 0.00 0.00 0.00 17 1007.7
20260506131959 23 169 1.6 11.3 0.00 0.00 0.00 17 1007.7
20260506131459 23 165 3.2 11.3 0.00 0.00 0.00 17 1007.7
20260506130959 23 163 3.2 8.0 0.00 0.00 0.00 17 1007.6
20260506130459 23 150 3.2 9.7 0.00 0.00 0.00 17 1007.5
20260506125959 23 205 1.6 9.7 0.00 0.00 0.00 17 1007.5
20260506125459 23 153 0.0 4.8 0.00 0.00 0.00 17 1007.6
20260506124959 23 150 1.6 8.0 0.00 0.00 0.00 17 1007.6
20260506124501 23 161 3.2 8.0 0.00 0.00 0.00 17 1007.6
20260506123959 23 150 3.2 8.0 0.00 0.00 0.00 17 1007.7
20260506123501 23 190 0.0 4.8 0.00 0.00 0.00 17 1007.7
20260506123000 23 191 0.0 4.8 0.00 0.00 0.00 17 1007.6
20260506122459 23 181 1.6 4.8 0.00 0.00 0.00 17 1007.6
20260506122000 23 182 0.0 4.8 0.00 0.00 0.00 17 1007.5
20260506121459 23 182 1.6 4.8 0.00 0.00 0.00 17 1007.4
20260506120959 23 178 0.0 4.8 0.00 0.00 0.00 17 1007.4
20260506120500 23 191 0.0 8.0 0.00 0.00 0.00 17 1007.5
20260506115958 23 174 0.0 8.0 0.00 0.00 0.00 17 1007.5
20260506115501 23 168 1.6 8.0 0.00 0.00 0.00 17 1007.3
20260506114500 23 173 1.6 4.8 0.00 0.00 0.00 17 1007.3
20260506113959 23 159 0.0 0.0 0.00 0.00 0.00 17 1007.4
20260506113000 24 181 0.0 0.0 0.00 0.00 0.00 17 1007.3
20260506112459 24 184 0.0 0.0 0.00 0.00 0.00 17 1007.3
20260506112000 24 184 0.0 0.0 0.00 0.00 0.00 17 1007.4
20260506111459 24 184 0.0 0.0 0.00 0.00 0.00 17 1007.4
20260506110459 24 184 0.0 0.0 0.00 0.00 0.00 17 1007.2
20260506105958 24 184 0.0 0.0 0.00 0.00 0.00 17 1007.2
20260506105459 24 184 0.0 0.0 0.00 0.00 0.00 17 1007.2
20260506105002 24 184 0.0 0.0 0.00 0.00 0.00 17 1007.1
20260506104459 24 184 0.0 0.0 0.00 0.00 0.00 17 1007.2
20260506103959 24 184 0.0 0.0 0.00 0.00 0.00 17 1007.2
20260506102959 24 184 0.0 0.0 0.00 0.00 0.00 17 1007.1
20260506102459 24 184 0.0 0.0 0.00 0.00 0.00 17 1007.1
20260506102001 24 184 0.0 0.0 0.00 0.00 0.00 17 1007.0
20260506101459 24 182 0.0 0.0 0.00 0.00 0.00 17 1007.1
20260506101000 24 182 0.0 0.0 0.00 0.00 0.00 17 1007.1
20260506100459 24 192 0.0 0.0 0.00 0.00 0.00 17 1007.0
20260506095959 24 205 0.0 0.0 0.00 0.00 0.00 17 1006.9
20260506095459 24 204 0.0 4.8 0.00 0.00 0.00 17 1006.9
20260506094959 24 219 1.6 4.8 0.00 0.00 0.00 17 1006.9
20260506094501 24 204 1.6 4.8 0.00 0.00 0.00 17 1006.9
20260506093959 24 176 0.0 9.7 0.00 0.00 0.00 17 1006.8
20260506093500 24 188 1.6 9.7 0.00 0.00 0.00 17 1006.8
20260506093000 24 196 1.6 9.7 0.00 0.00 0.00 17 1006.9
20260506092459 24 189 1.6 8.0 0.00 0.00 0.00 17 1006.9
20260506091959 24 189 3.2 8.0 0.00 0.00 0.00 17 1006.9
20260506091503 24 189 3.2 8.0 0.00 0.00 0.00 17 1006.9
20260506091001 24 187 3.2 8.0 0.00 0.00 0.00 17 1006.9
20260506090459 24 201 3.2 8.0 0.00 0.00 0.00 17 1007.0
20260506085459 24 178 1.6 8.0 0.00 0.00 0.00 17 1007.0
20260506084959 24 213 3.2 8.0 0.00 0.00 0.00 17 1007.1
20260506084000 24 212 3.2 9.7 0.00 0.00 0.00 17 1007.0
20260506083459 24 192 1.6 9.7 0.00 0.00 0.00 17 1007.0
20260506083000 24 221 3.2 9.7 0.00 0.00 0.00 17 1007.0
20260506082501 24 165 3.2 14.5 0.00 0.00 0.00 17 1006.9
20260506082000 25 215 4.8 16.1 0.00 0.00 0.00 17 1006.9
20260506081502 24 209 3.2 16.1 0.00 0.00 0.00 17 1007.0
20260506080459 25 207 3.2 11.3 0.00 0.00 0.00 17 1007.1
20260506072959 25 174 1.6 11.3 0.00 0.00 0.00 17 1007.5
20260506072459 25 172 4.8 11.3 0.00 0.00 0.00 17 1007.4
20260506072000 25 215 3.2 11.3 0.00 0.00 0.00 17 1007.4
20260506071459 25 179 3.2 9.7 0.00 0.00 0.00 17 1007.4
20260506071000 25 196 4.8 11.3 0.00 0.00 0.00 17 1007.5
20260506062501 25 194 9.7 19.3 0.00 0.00 0.00 17 1007.5
20260506062000 25 180 9.7 19.3 0.00 0.00 0.00 17 1007.5
20260506061459 25 169 8.0 16.1 0.00 0.00 0.00 17 1007.6
20260506061000 25 173 6.4 16.1 0.00 0.00 0.00 17 1007.6
20260506051000 25 173 6.4 19.3 0.00 0.00 0.00 17 1007.4
20260506044959 25 177 4.8 16.1 0.00 0.00 0.00 17 1007.5
20260506044500 25 158 4.8 11.3 0.00 0.00 0.00 17 1007.6
20260506044000 25 147 3.2 12.9 0.00 0.00 0.00 17 1007.5
20260506043459 25 204 3.2 12.9 0.00 0.00 0.00 17 1007.5
20260506042501 25 177 8.0 16.1 0.00 0.00 0.00 17 1007.5
20260506041959 25 169 8.0 16.1 0.00 0.00 0.00 17 1007.5
20260506041000 25 172 6.4 14.5 0.00 0.00 0.00 17 1007.3
20260506040502 25 169 4.8 14.5 0.00 0.00 0.00 17 1007.2
20260506035500 25 174 4.8 12.9 0.00 0.00 0.00 17 1007.2
20260506035001 25 171 1.6 11.3 0.00 0.00 0.00 17 1007.1
20260506034500 25 175 3.2 11.3 0.00 0.00 0.00 17 1006.9
20260506033959 25 164 4.8 14.5 0.00 0.00 0.00 17 1006.7
20260506033500 25 176 6.4 14.5 0.00 0.03 0.00 17 1006.7
20260506033000 25 164 4.8 14.5 0.00 0.03 0.00 17 1006.6
20260506032459 25 170 8.0 19.3 0.00 0.03 0.00 17 1006.7
20260506032000 26 159 4.8 19.3 0.00 0.03 0.00 17 1006.7
20260506031500 26 188 4.8 19.3 0.00 0.03 0.00 17 1006.6
20260506030959 26 182 4.8 19.3 0.00 0.03 0.00 17 1006.5
20260506030500 26 167 9.7 19.3 0.00 0.03 0.00 17 1006.4
20260506025959 26 185 8.0 19.3 0.00 0.03 0.00 17 1006.2
20260506025500 26 165 4.8 19.3 0.00 0.03 0.00 17 1006.2
20260506025000 26 191 8.0 19.3 0.00 0.03 0.00 17 1006.1
20260506024459 26 169 8.0 19.3 0.00 0.03 0.00 17 1006.1
20260506024002 26 173 8.0 19.3 0.00 0.03 0.00 17 1006.1
20260506023500 26 166 8.0 19.3 0.00 0.03 0.00 17 1006.1
20260506022959 26 176 6.4 14.5 0.00 0.03 0.00 17 1006.0
20260506022500 27 165 6.4 22.5 0.00 0.03 0.00 17 1006.0
20260506022003 27 169 8.0 22.5 0.00 0.03 0.00 17 1005.9
20260506021459 27 160 6.4 16.1 0.00 0.03 0.00 17 1005.9
20260506021000 27 165 8.0 16.1 0.00 0.03 0.00 17 1005.7
20260506015959 27 184 8.0 20.9 0.00 0.03 0.00 17 1005.5
20260506015000 27 161 8.0 27.4 0.00 0.03 0.00 17 1005.4
20260506014459 27 150 8.0 19.3 0.00 0.03 0.00 17 1005.4
20260506014000 28 161 8.0 19.3 0.00 0.03 0.00 18 1005.4
20260506013500 28 170 4.8 12.9 0.00 0.03 0.00 24 1005.2
20260506013002 28 165 4.8 16.1 0.00 0.03 0.00 29 1005.1
20260506012459 28 160 4.8 16.1 0.00 0.03 0.00 35 1005.1
20260506012000 28 138 4.8 14.5 0.00 0.03 0.00 41 1005.1
20260506011500 28 167 3.2 9.7 0.00 0.03 0.00 44 1005.0
20260506011000 28 166 1.6 11.3 0.00 0.03 0.00 45 1004.9
20260506010501 28 179 1.6 11.3 0.00 0.03 0.00 45 1004.8
20260506010000 28 165 1.6 11.3 0.00 0.03 0.00 45 1004.7
20260506005459 28 163 0.0 11.3 0.00 0.03 0.00 46 1004.7
20260506005000 28 163 0.0 11.3 0.00 0.03 0.00 47 1004.8
20260506004459 28 164 6.4 11.3 0.00 0.03 0.00 49 1004.8
20260506003500 28 166 4.8 9.7 0.00 0.03 0.00 51 1004.7
20260506002501 28 176 3.2 14.5 0.00 0.03 0.00 53 1004.8
20260506001959 29 152 6.4 14.5 0.00 0.03 0.00 54 1004.6
20260506001500 29 156 6.4 12.9 0.00 0.03 0.00 54 1004.6
20260506001003 29 177 1.6 11.3 0.00 0.03 0.00 53 1004.5
20260506000459 29 161 6.4 14.5 0.00 0.03 0.00 56 1004.5
20260505235500 29 134 3.2 14.5 0.00 0.03 0.00 53 1004.4
20260505235000 29 170 1.6 14.5 0.00 0.03 0.00 55 1004.4
20260505234000 29 160 9.7 19.3 0.00 0.03 0.00 57 1004.3
20260505233500 29 173 4.8 12.9 0.00 0.03 0.00 58 1004.3
20260505233000 29 164 3.2 14.5 0.00 0.03 0.00 58 1004.3
20260505232459 29 196 4.8 14.5 0.00 0.03 0.00 59 1004.2
20260505232000 30 148 8.0 19.3 0.00 0.03 0.00 60 1004.2
20260505231459 30 166 9.7 19.3 0.00 0.03 0.00 62 1004.3
20260505231003 30 149 8.0 12.9 0.00 0.03 0.00 61 1004.3
20260505230500 30 150 3.2 14.5 0.00 0.03 0.00 59 1004.3
20260505225959 30 156 8.0 19.3 0.00 0.03 0.00 60 1004.3
20260505225500 30 166 8.0 22.5 0.00 0.03 0.00 61 1004.3
20260505225001 30 167 11.3 22.5 0.00 0.03 0.00 61 1004.2
20260505224502 29 177 3.2 12.9 0.00 0.03 0.00 60 1004.3
20260505224000 29 164 3.2 14.5 0.00 0.03 0.00 59 1004.4
20260505223459 29 169 8.0 19.3 0.00 0.03 0.00 61 1004.4
20260505223000 30 164 8.0 19.3 0.00 0.03 0.00 62 1004.5
20260505222500 30 159 3.2 14.5 0.00 0.03 0.00 62 1004.5
20260505222000 30 189 8.0 12.9 0.00 0.03 0.00 65 1004.5
20260505220500 29 181 3.2 16.1 0.00 0.03 0.00 63 1004.7
20260505220003 29 196 4.8 8.0 0.00 0.03 0.00 64 1004.8
20260505214500 30 226 3.2 14.5 0.00 0.03 0.00 64 1004.8
20260505214000 30 200 4.8 14.5 0.00 0.03 0.00 64 1004.9
20260505213500 30 184 3.2 14.5 0.00 0.03 0.00 64 1005.0
20260505213000 30 227 8.0 14.5 0.00 0.03 0.00 66 1005.1
20260505212503 30 179 3.2 12.9 0.00 0.03 0.00 63 1005.2
20260505212000 30 210 3.2 12.9 0.00 0.03 0.00 64 1005.3
20260505211500 30 200 3.2 11.3 0.00 0.03 0.00 64 1005.4
20260505211000 30 189 4.8 9.7 0.00 0.03 0.00 64 1005.4
20260505210500 29 195 1.6 9.7 0.00 0.03 0.00 61 1005.4
20260505205959 29 177 1.6 11.3 0.00 0.03 0.00 61 1005.5
20260505205501 29 184 4.8 11.3 0.00 0.03 0.00 63 1005.7
20260505205000 29 182 3.2 11.3 0.00 0.03 0.00 62 1005.7
20260505204459 28 205 6.4 11.3 0.00 0.03 0.00 63 1005.8
20260505204001 28 171 3.2 12.9 0.00 0.03 0.00 60 1005.9
20260505203500 28 172 4.8 16.1 0.00 0.03 0.00 61 1006.0
20260505202503 28 164 4.8 16.1 0.00 0.03 0.00 60 1006.1
20260505202001 28 162 4.8 14.5 0.00 0.03 0.00 61 1006.2
20260505201500 28 207 1.6 14.5 0.00 0.03 0.00 60 1006.2
20260505201001 28 196 8.0 14.5 0.00 0.03 0.00 62 1006.3
20260505200500 29 216 4.8 12.9 0.00 0.03 0.00 63 1006.3
20260505200000 29 205 3.2 12.9 0.00 0.03 0.00 56 1006.3
20260505195500 28 161 4.8 16.1 0.00 0.03 0.00 61 1006.4
20260505195000 29 162 0.0 16.1 0.00 0.03 0.00 61 1006.5
20260505194459 29 161 6.4 14.5 0.00 0.03 0.00 60 1006.5
20260505193500 28 191 3.2 12.9 0.00 0.03 0.00 59 1006.6
20260505193000 28 280 3.2 12.9 0.00 0.03 0.00 52 1006.8
20260505192002 28 204 1.6 9.7 0.00 0.03 0.00 50 1006.9
20260505191500 28 197 1.6 11.3 0.00 0.03 0.00 38 1007.1
20260505191002 27 178 1.6 12.9 0.00 0.03 0.00 41 1007.2
20260505190500 27 148 8.0 12.9 0.00 0.03 0.00 41 1007.2
20260505190000 27 175 4.8 11.3 0.00 0.03 0.00 36 1007.3
20260505185000 27 239 0.0 11.3 0.00 0.03 0.00 32 1007.4
20260505184501 27 204 1.6 11.3 0.00 0.03 0.00 30 1007.4
20260505183500 27 202 3.2 9.7 0.00 0.03 0.00 38 1007.6
20260505182500 27 164 0.0 8.0 0.00 0.03 0.00 23 1007.6
20260505182001 27 224 1.6 4.8 0.00 0.03 0.00 21 1007.6
20260505181500 26 227 1.6 8.0 0.00 0.03 0.00 18 1007.6
20260505180859 26 183 1.6 8.0 0.00 0.03 0.00 17 1007.6
20260505180501 26 238 1.6 9.7 0.00 0.03 0.00 17 1007.7
20260505180000 26 216 1.6 9.7 0.00 0.03 0.00 17 1007.7
20260505175500 26 201 1.6 9.7 0.00 0.03 0.00 17 1007.7
20260505175003 26 206 1.6 12.9 0.00 0.03 0.00 17 1007.7
20260505174500 26 221 3.2 12.9 0.00 0.03 0.00 17 1007.8
20260505174004 26 219 3.2 12.9 0.00 0.03 0.00 17 1007.9
20260505173500 26 203 3.2 12.9 0.00 0.03 0.00 17 1007.9
20260505173002 26 188 0.0 9.7 0.00 0.03 0.00 17 1008.0
20260505172500 26 236 3.2 9.7 0.00 0.03 0.00 17 1007.9
20260505172000 25 210 4.8 9.7 0.00 0.03 0.00 17 1007.9
20260505171500 25 214 1.6 9.7 0.00 0.03 0.00 17 1007.9
20260505171002 25 210 1.6 14.5 0.00 0.03 0.00 17 1007.9
20260505170500 25 201 4.8 14.5 0.00 0.03 0.00 17 1007.9
20260505170002 25 207 1.6 16.1 0.00 0.03 0.00 17 1007.9
20260505165500 25 196 4.8 16.1 0.00 0.03 0.00 17 1007.9
20260505165000 25 199 1.6 11.3 0.00 0.03 0.00 17 1007.9
20260505164500 25 199 1.6 11.3 0.00 0.03 0.00 17 1008.0
20260505163500 24 240 0.0 11.3 0.00 0.03 0.00 17 1008.0
20260505163001 24 191 1.6 11.3 0.00 0.03 0.00 17 1008.0
20260505162500 23 223 1.6 11.3 0.00 0.03 0.00 17 1008.0
20260505162000 23 236 0.0 11.3 0.00 0.03 0.00 17 1007.9
20260505161500 23 236 1.6 11.3 0.00 0.03 0.00 17 1008.0
20260505161000 23 201 0.0 11.3 0.00 0.03 0.00 17 1008.1
20260505160504 23 217 3.2 11.3 0.00 0.03 0.00 17 1008.0